Regional Weather Roundup
Issued by NWS Jackson, KY

Home | Current Version | Previous Version | Text Only | Print | Product List | Glossary On
Versions: 1 2 3 4 5 6 7 8 9 10 11 12 13 14 15 16 17 18 19 20 21 22 23 24 25 26 27 28 29 30 31 32 33 34 35 36 37 38 39 40 41 42 43 44 45 46 47 48 49 50
000
ASUS43 KJKL 251119
RWRJKL

EAST KENTUCKY HOURLY WEATHER ROUNDUP
NATIONAL WEATHER SERVICE JACKSON KY
700 AM EDT SAT OCT 25 2014

NOTE: "FAIR" INDICATES FEW OR NO CLOUDS BELOW 12,000 FEET WITH
NO SIGNIFICANT WEATHER AND/OR OBSTRUCTIONS TO VISIBILITY.

* THESE REPORTS ARE NOT UNDER NWS QUALITY CONTROL AND MAY NOT
  REPORT WEATHER SUCH AS PRECIPITATION AND FOG.

KYZ079-080-083-085-087-088-110-112-115-119-120-251200
...EASTERN KENTUCKY...

CITY           SKY/WX    TMP DP  RH WIND       PRES   REMARKS
JACKSON        PTCLDY    42  39  89 CALM      30.07R
LONDON         PTCLDY    41  38  89 CALM      30.09R
SOMERSET*      CLEAR     37  37 100 CALM      30.09F
MONTICELLO*    CLEAR     39  39 100 CALM      30.10S FOG
MIDDLESBORO*   FOG       38  38 100 CALM      30.12S VSB 1/4
HARLAN APT*    CLOUDY    37  37 100 CALM      30.10F VSB<1/4
BLACK MTN*       N/A     43  41  93 N1          N/A
PIKEVILLE APT* PTCLDY    39  39 100 S5        30.07S FOG
BIG SANDY*     SUNNY     42  41  95 S5        30.06S
MOREHEAD APT*  MOSUNNY   43  41  93 S5        30.06S
ASHLAND*       MOCLDY    39  36  87 CALM      30.03R
$$

KYZ035-036-041-042-044-050-067-078-099-251200
...CENTRAL KENTUCKY...

CITY           SKY/WX    TMP DP  RH WIND       PRES   REMARKS
MT STERLING*   CLEAR     43  41  93 SW5       30.06S
FLEMING/MASON* CLEAR     45  39  81 S6        30.05R
DANVILLE*      CLEAR     43  41  93 S5        30.06F
RICHMOND*      CLEAR     43  39  87 CALM      30.04F
LEXINGTON      CLEAR     48  42  80 SW5       30.05R
FRANKFORT      CLEAR     42  39  89 CALM      30.04R
$$

KYZ091>093-OHZ055-061-077-WVZ005-015-034-035-042-251200
...SOUTHERN OHIO/WEST VIRGINIA...

CITY           SKY/WX    TMP DP  RH WIND       PRES   REMARKS
COVINGTON      MOCLDY    46  42  86 S7        30.00S
COLUMBUS       PTCLDY    45  39  79 SE3       29.98S
DAYTON         PTCLDY    51  47  86 S10       29.97F
WILMINGTON     CLEAR     45  41  86 SW6       30.00S
HUNTINGTON     CLEAR     42  41  96 S3        30.04S
CHARLESTON     PTCLDY    37  36  96 CALM      30.05R
PINEVILLE*     FOG       37  37 100 MISG      30.13S VSB 1/4
BECKLEY        CLEAR     39  36  89 SW3       30.07R
BLUEFIELD      CLEAR     41  36  82 W8        30.07S
$$

VAZ002-007-008-TNZ017-027-036-066-071-251200
...SOUTHWEST VIRGINIA/EAST TENNESSEE...

CITY           SKY/WX    TMP DP  RH WIND       PRES   REMARKS
WISE*          CLEAR     43  36  75 S3        30.10R
JONESVILLE*    SUNNY     34  34 100 CALM      30.13R
ABINGDON*      CLEAR     37  36  97 CALM      30.09S
BRISTOL        PTCLDY    34  34 100 CALM      30.11R
KNOXVILLE      PTCLDY    40  39  97 E3        30.10S
OAK RIDGE      FOG       40  39  97 CALM      30.11F VSB 1/2
CROSSVILLE     CLEAR     41  37  86 CALM      30.11R
NASHVILLE      PTCLDY    45  43  93 S3        30.09S
$$

...KEY TO REMARKS...
VSB - VISIBILITY IN MILES
WCI - WIND CHILL INDEX
HX  - HEAT INDEX

$$



USA.gov is the U.S. government's official web portal to all federal, state and local government web resources and services.